This is the latest recevied weather packets stored in our database for station/object N4JTC. If no packets are shown the sender has not sent any weather packets the latest 1 day(s).
| Time | Temp. | Humidity | Pressure | Rain* | Wind** | Luminosity | Snow |
|---|---|---|---|---|---|---|---|
| 1778005203 | 27.78° C | 59% | 1016.4 hPa | 0 mm | 1.79 m/s, 175° | 707 W/m² | - |
| 1778004903 | 27.78° C | 59% | 1016.6 hPa | 0 mm | 3.13 m/s, 203° | 839 W/m² | - |
| 1778004602 | 27.22° C | 60% | 1016.3 hPa | 0 mm | 1.79 m/s, 200° | 734 W/m² | - |
| 1778004303 | 26.67° C | 61% | 1016.5 hPa | 0 mm | 3.13 m/s, 105° | 737 W/m² | - |
| 1778004004 | 26.11° C | 61% | 1016.8 hPa | 0 mm | 3.13 m/s, 208° | 349 W/m² | - |
| 1778003702 | 26.11° C | 61% | 1016.7 hPa | 0 mm | 3.13 m/s, 195° | 334 W/m² | - |
| 1778003403 | 27.22° C | 60% | 1016.7 hPa | 0 mm | 2.24 m/s, 185° | 295 W/m² | - |
| 1778003103 | 27.22° C | 60% | 1017 hPa | 0 mm | 2.24 m/s, 192° | 459 W/m² | - |
| 1778002503 | 26.11° C | 60% | 1016.8 hPa | 0 mm | 4.02 m/s, 187° | 382 W/m² | - |
| 1778002203 | 26.67° C | 60% | 1017 hPa | 0 mm | 2.24 m/s, 201° | 348 W/m² | - |
| 1778001903 | 26.67° C | 62% | 1016.9 hPa | 0 mm | 1.79 m/s, 179° | 451 W/m² | - |
| 1778001603 | 26.67° C | 60% | 1017 hPa | 0 mm | 2.24 m/s, 206° | 831 W/m² | - |
| 1778001303 | 26.67° C | 61% | 1017 hPa | 0 mm | 3.13 m/s, 187° | 844 W/m² | - |
| 1778001003 | 27.22° C | 60% | 1017 hPa | 0 mm | 2.24 m/s, 196° | 759 W/m² | - |
| 1778000702 | 26.67° C | 62% | 1016.9 hPa | 0 mm | 1.79 m/s, 182° | 651 W/m² | - |
| 1778000403 | 26.11° C | 62% | 1016.9 hPa | 0 mm | 2.24 m/s, 201° | 457 W/m² | - |
| 1778000102 | 26.11° C | 61% | 1017.2 hPa | 0 mm | 2.24 m/s, 217° | 420 W/m² | - |
| 1777999803 | 26.11° C | 60% | 1017.2 hPa | 0 mm | 1.79 m/s, 236° | 362 W/m² | - |
| 1777999503 | 26.67° C | 61% | 1016.9 hPa | 0 mm | 1.34 m/s, 198° | 442 W/m² | - |
| 1777998902 | 26.11° C | 59% | 1016.8 hPa | 0 mm | 1.34 m/s, 111° | 472 W/m² | - |
| 1777998603 | 26.11° C | 60% | 1017 hPa | 0 mm | 1.79 m/s, 132° | 391 W/m² | - |
| 1777998303 | 27.22° C | 57% | 1016.6 hPa | 0 mm | 1.79 m/s, 161° | 362 W/m² | - |
| 1777998004 | 26.67° C | 58% | 1016.9 hPa | 0 mm | 0.89 m/s, 84° | 856 W/m² | - |
| 1777997703 | 27.22° C | 57% | 1016.8 hPa | 0 mm | 0.89 m/s, 67° | 949 W/m² | - |
| 1777997403 | 26.67° C | 57% | 1016.9 hPa | 0 mm | 0.89 m/s, 99° | 930 W/m² | - |
* Rain latest hour (hover to see other rain measurements)
** Current wind speed in m/s (hover to see current wind gust speed)